Location: Andershausen
(51.8462°N, 9.8595°E)
Time: 11:48:07
(UTC+00:00)

IRAS Rocket - Pass Details

Date: 18 November 2025
Orbit: 845 x 876 km, 100.1° (Epoch: 10 December)

Event Time Altitude Azimuth Distance (km) Brightness Sun altitude
Rises 17:35:43 0° 162° (SSE) 3,436 7.3 -19.7°
Reaches altitude 10° 17:38:06 10° 164° (SSE) 2,498 6.5 -20.1°
Maximum altitude 17:43:39 83° 251° (WSW) 871 4.2 -20.9°
Drops below altitude 10° 17:49:12 10° 341° (NNW) 2,495 6.8 -21.8°
Sets 17:51:35 0° 342° (NNW) 3,431 7.5 -22.1°
